GFSGBSN_850_dewp_021.txt.gz
Dewpoint
8 9 9 9 8 7 0 -1 -2 -8 -9 -9 -8 -7 -5 -3 -2 -2 -4 -4 -2 -2 -4 -6 -10 -10 -8 5 0 -4 -9 -14 -11 -6 -5 -9 -8 -8 -10 -11 -11 -7 -8 -7 -3 -2 -5
8 8 9 10 9 8 5 -1 -2 -9 -9 -8 -8 -6 -3 -2 -1 -1 -3 -3 -3 -3 -5 -8 -11 -9 -3 2 -4 -1 -7 -11 -4 -3 -7 -8 -8 -10 -10 -9 -7 -8 -8 -10 -7 -4 0
-3 8 8 9 8 9 7 2 -1 -7 -8 -8 -8 -6 -2 -1 -0 -1 -3 -3 -4 -5 -7 -9 -10 -6 2 -0 -4 1 -4 -4 -4 -6 -6 -6 -6 -7 -6 -6 -6 -9 -9 -11 -9 -4 -3
-27 3 8 8 9 8 8 5 0 -3 -7 -8 -7 -5 -1 -1 0 -1 -3 -4 -5 -7 -8 -9 -6 -4 3 -2 -3 -1 -0 -1 -2 -3 -4 -3 -3 -4 -5 -5 -8 -9 -9 -7 -9 -5 -4
-27 -24 5 8 9 7 9 7 1 -1 -7 -7 -7 -3 -1 0 1 -2 -4 -5 -6 -8 -8 -6 -3 1 1 -5 -6 -5 -3 -4 -2 -2 -3 -3 -2 -3 -4 -3 -7 -8 -7 -7 -7 -8 -5
-11 -10 -14 7 7 7 9 9 3 0 -6 -7 -6 -2 -0 0 1 -2 -4 -5 -6 -6 -5 -4 -1 6 1 -5 -5 -6 -5 -4 -2 -2 -2 -2 -3 -2 -4 -5 -5 -7 -9 -11 -8 -6 -6
-11 -5 -3 -3 7 7 9 9 5 1 -3 -7 -6 -1 0 1 0 -3 -4 -5 0 4 -2 1 -1 -2 -6 -5 -5 -6 -7 -4 -2 -2 -2 -3 -3 -3 -6 -6 -9 -9 -9 -12 -10 -8 -10
-9 -9 -9 2 5 6 8 9 7 2 -2 -6 -5 0 1 1 -1 -3 -4 3 3 6 4 -3 -2 -3 -3 -4 -6 -8 -9 -5 -4 -3 -5 -3 -3 -6 -8 -9 -10 -10 -10 -7 -8 -7 -5
0 1 0 -2 1 6 6 9 8 4 1 -6 -4 1 1 1 -0 -3 -6 2 5 5 5 -1 -2 -3 -5 -3 -8 -9 -9 -6 -5 -3 -4 -2 -3 -4 -6 -8 -8 -8 -8 -5 -5 -5 -5
1 1 -1 -1 -1 5 5 8 9 4 3 -4 -3 1 1 1 -1 1 -0 -3 -0 1 4 -3 -2 -3 -4 -5 -7 -8 -8 -6 -7 -5 -5 2 -3 -4 -7 -6 -6 -4 -4 -5 -4 -3 -3
1 1 -1 1 0 4 5 7 9 5 4 -3 -2 1 1 1 7 3 6 7 4 8 5 -6 -6 -5 -6 -7 -9 -6 -6 -7 -6 -5 -5 -3 -3 -5 -5 -3 -3 1 -3 -3 -4 -3 -2
0 1 0 -1 1 1 5 7 8 6 4 -2 -1 2 2 1 -1 4 6 8 8 9 3 -5 -7 -6 -5 -7 -9 -7 -8 -7 -5 -6 -5 2 -3 -4 -3 -3 -3 -3 -2 -2 -3 -5 -0
1 1 -0 -0 0 0 3 5 8 6 5 -1 -0 2 2 -0 3 4 6 8 7 6 -5 -6 -6 -7 -7 -7 -8 -7 -6 -7 -6 -3 -3 -3 -4 -3 -3 -2 -2 -4 -2 1 1 2 1
1 1 -0 -1 -2 -1 1 5 7 7 6 0 1 3 2 1 5 5 10 7 6 -3 -4 -8 -8 -7 -6 -7 -8 -8 -7 -7 -8 -4 -3 -2 1 -3 -3 -2 -3 -2 -4 1 -0 -0 -1
-0 1 0 -1 -1 -2 0 2 7 8 6 1 2 4 3 -1 -2 8 8 9 4 -6 -6 -6 -7 -5 -5 -6 -6 -7 -7 -7 -7 -5 -3 -3 -1 -3 -3 -3 -4 -3 -0 -2 1 2 2
-1 0 0 -2 -1 -3 -1 1 5 7 6 1 4 4 3 0 -1 7 7 5 -0 -4 -5 -7 -5 -5 -3 -4 -5 -6 -4 -4 -2 -1 -2 -4 -1 -3 -2 -2 -2 -1 -3 -0 -2 1 1
-3 -1 0 -1 -1 -2 -2 -0 3 7 6 1 6 4 1 -0 0 7 6 3 -2 -2 -3 -5 -6 -6 -5 -4 -5 -5 -5 -2 -2 -1 -2 -5 -4 0 -0 -1 -4 0 -1 -2 -1 1 2
-3 -2 0 -1 -1 -2 -1 -1 4 6 4 2 6 4 8 1 3 5 5 0 -4 -1 1 -2 -3 -6 -5 -5 -3 -5 -6 -5 -2 -2 -2 -3 -3 1 -0 -1 -2 -1 -1 -1 2 -1 1
-4 -2 -0 -1 -3 -2 0 -0 3 5 4 4 5 5 9 6 7 10 2 -1 -3 -1 -1 -1 -4 -4 -5 -4 -3 -4 -4 2 1 0 -2 0 -2 2 1 1 -1 -1 -3 -2 -2 2 -1
-4 -3 -1 -1 -3 -3 0 0 3 5 3 5 4 6 9 8 3 4 3 -0 -0 -1 -1 -2 -4 -2 -1 -0 -0 1 1 1 2 0 -0 -0 -1 -0 2 0 -1 1 -2 -3 -1 2 -0
-5 -0 -1 -3 -4 -3 0 1 3 5 2 5 2 2 4 8 6 5 1 -1 -2 0 -0 -0 1 -1 -1 0 1 2 2 2 2 2 0 1 2 0 -1 -1 -2 -2 -3 -2 -2 -2 1
-1 -1 -2 -3 -4 -4 -1 2 3 5 2 6 2 1 2 3 3 2 1 -0 -3 -1 0 1 -0 -2 -2 0 1 0 2 2 2 3 2 1 3 3 4 0 -0 -1 -3 -5 -5 -5 -5
-4 -4 -3 -3 -3 -2 -2 1 3 4 3 5 5 1 1 5 5 2 3 -1 -2 -1 3 0 -1 -0 1 2 3 3 2 1 0 3 4 3 5 3 -0 -0 0 5 2 -2 -5 -6 -5
-6 -5 -5 -4 -2 -2 -0 -0 4 4 3 4 5 3 3 7 5 2 -1 -2 -3 0 2 2 1 1 5 3 2 2 1 1 0 1 2 5 4 3 3 4 7 -7 -6 -8 -5 -6 -8
-8 -5 -4 -3 -2 -1 -0 2 3 3 4 4 5 4 2 10 2 -1 -3 -3 -3 1 3 3 4 4 3 2 4 5 6 7 3 -0 -2 -1 2 4 9 0 -3 -6 -9 -6 -4 -5 -7
-6 -4 -4 -2 -1 -1 1 2 5 3 3 4 9 5 1 5 4 -2 -3 -4 5 6 6 5 4 4 3 5 7 5 4 2 5 4 -0 -1 2 3 3 9 9 -1 -4 -2 -3 -3 -6
-3 -2 -1 -0 1 -1 1 2 4 3 3 6 9 2 -0 -2 -2 -2 -2 -2 -1 3 5 5 5 4 3 8 11 7 5 1 3 4 7 6 7 8 5 8 3 -5 -5 -2 -1 1 -2
-2 -1 0 1 -1 2 3 4 2 3 4 7 9 0 -0 -1 2 3 -1 -1 -1 0 7 5 5 5 5 8 11 7 9 4 3 0 4 4 6 8 6 9 7 -6 -2 0 2 -2 -3
-0 1 1 1 3 5 3 2 3 3 4 8 8 1 3 3 7 7 5 3 3 2 2 4 2 4 4 6 8 9 9 7 5 6 -0 4 2 3 1 1 -2 -4 -4 -4 -2 -1 -1

GFSGBSN_850_dewp_024.txt.gz
Dewpoint
5 7 8 9 9 9 9 8 3 0 -1 -8 -9 -9 -8 -7 -5 -3 -2 -3 -4 -3 -4 -6 -8 -11 -10 5 1 -1 -6 -14 -13 -8 -2 -6 -9 -10 -8 -10 -11 -10 -8 -9 -2 -1 2
-30 -3 7 7 9 9 9 9 7 2 -0 -6 -8 -8 -8 -6 -4 -2 -1 -2 -4 -4 -5 -7 -10 -11 -3 2 -4 -2 -6 -8 -9 -4 -4 -10 -9 -9 -9 -10 -11 -10 -7 -9 -4 -1 -4
-32 -30 -8 8 8 9 8 9 8 5 1 -4 -6 -7 -7 -5 -2 -1 -1 -3 -4 -5 -7 -9 -10 -8 3 -1 -2 -0 -4 -5 -4 -3 -7 -8 -7 -7 -8 -6 -7 -6 -7 -9 -8 -3 -4
-32 -32 -31 -14 8 8 8 7 8 8 2 -1 -5 -7 -7 -4 -1 -1 -1 -3 -5 -6 -8 -9 -7 -5 3 -2 -3 -2 -1 -3 -3 -5 -5 -4 -3 -4 -5 -4 -7 -7 -7 -4 -9 -4 -2
-31 -31 -32 -30 -9 8 8 8 8 9 4 1 -3 -6 -6 -2 -1 -1 -2 -4 -7 -8 -9 -7 -2 4 2 -2 -4 -5 -3 -2 -4 -2 -3 -4 -3 -3 -4 -3 -4 -5 -3 -5 -7 -5 -2
-26 -29 -31 -31 -29 -1 8 5 7 9 6 2 -0 -5 -6 -1 -0 -0 -2 -6 -8 -8 -7 -5 -2 4 -2 -3 -8 -6 -5 -5 -2 -2 -2 -3 -3 -3 -3 -4 -1 -2 -5 -6 -7 -10 -5
-17 -23 -27 -27 -30 -26 6 6 7 9 8 3 1 -5 -4 -0 0 0 -3 -6 3 5 1 0 -0 -2 -5 -6 -6 -5 -7 -4 -3 -2 -1 -3 -1 -2 -1 -3 -6 -6 -5 -7 -10 -9 -8
-5 -8 -15 -20 -22 -27 -7 7 4 8 9 4 2 -4 -3 0 1 0 -3 5 4 6 5 2 -6 -2 -3 -3 -6 -7 -8 -4 -2 -1 0 -3 -1 -3 -4 -5 -5 -7 -6 -9 -10 -10 -9
-2 0 -5 -12 -13 -19 -26 3 7 8 9 5 3 -3 -2 1 1 -0 -3 -5 4 4 5 -1 -2 -5 -4 -5 -7 -8 -9 -7 -3 -3 -1 0 1 0 -4 -6 -6 -7 -5 -4 -7 -11 -13
-1 1 1 -1 -6 -8 -22 -8 6 7 9 6 3 -2 -2 2 0 -2 -1 -5 1 3 6 -1 -3 -4 -4 -5 -7 -8 -10 -2 -2 -2 3 3 -1 -0 -5 -4 -8 -2 -2 -4 -2 -4 -4
-0 1 1 1 2 -1 -9 -9 6 6 8 7 4 -2 -1 2 7 4 7 4 6 8 9 -4 -5 -6 -6 -6 -9 -8 -8 -5 -3 -3 0 4 -4 -4 -4 -1 -2 1 -2 -1 -4 -5 2
-0 -1 0 1 1 1 -2 -8 6 6 7 7 4 -1 0 2 1 3 7 9 8 10 7 -4 -7 -6 -7 -8 -10 -9 -7 -8 -3 -2 -5 -4 -4 -2 0 -3 -3 -2 -1 -2 -5 -4 7
-3 -1 -1 -1 1 1 0 -3 4 5 7 7 5 -0 -1 3 4 3 5 10 8 6 -5 -4 -6 -7 -7 -7 -8 -9 -6 -7 -6 -2 -2 -2 -5 -5 -2 -5 -5 -6 -4 2 8 9 7
-3 -1 -1 -1 0 1 -0 -0 2 4 6 8 6 3 -1 3 6 8 9 10 7 -1 -2 -10 -9 -8 -6 -9 -8 -8 -6 -6 -8 -8 -4 -2 4 -5 -6 -5 4 3 -5 4 10 10 4
-5 -1 -0 -1 -1 0 0 -1 1 4 7 7 6 3 1 2 5 9 9 11 5 -1 -5 -6 -9 -6 -6 -8 -8 -8 -7 -7 -9 -9 2 5 3 0 -4 -6 -5 -4 -2 -4 3 6 5
-3 -2 0 0 2 1 -0 -2 0 3 6 7 6 5 1 2 3 8 9 8 2 -2 -6 -8 -7 -7 -5 -6 -6 -7 -7 -8 -7 -4 1 8 9 3 -3 -4 -4 -4 -6 1 -1 3 3
-2 -1 -1 -0 1 1 0 -2 -1 1 5 6 5 4 1 2 3 8 9 6 2 -2 -5 -5 -7 -7 -6 -4 -7 -7 -8 -8 -3 -3 -3 -3 3 -1 -1 -2 -6 -1 -1 -4 -4 4 8
-3 -1 -1 -2 0 1 -0 -1 -1 1 4 6 4 4 3 3 4 2 7 3 -0 -1 -4 -3 -4 -7 -6 -5 -5 -6 -6 -6 -6 -6 -2 -5 -3 5 -2 -4 -3 -3 -0 -3 9 4 7
-2 -3 -3 -2 -1 1 -1 -1 -2 1 4 6 3 4 6 3 4 7 5 3 -0 -1 -2 -1 -2 -4 -7 -5 -3 -5 -6 2 0 -1 -1 -1 -0 4 -0 -1 -2 -1 -3 -5 -1 5 6
-4 -4 -4 -3 -1 0 -0 -0 -1 0 4 5 2 6 9 8 -0 3 6 2 1 -1 -3 -3 -2 -5 -5 -5 -5 -3 -3 2 1 0 -0 1 -1 -1 5 -0 -0 2 -1 -4 -2 9 6
-4 -5 -6 -4 -2 0 0 -0 0 -0 3 5 3 4 6 9 7 4 5 2 1 -0 -4 -2 -2 -5 -2 0 -2 0 -1 3 2 2 -0 0 2 -0 -2 -3 -1 -0 -2 -3 -3 -1 3
-4 -5 -4 -3 -3 0 0 -1 -0 1 3 5 4 3 5 4 4 5 5 4 1 -2 -1 0 -0 -4 -2 0 -1 -0 -1 3 2 3 1 1 5 4 5 1 -0 0 -2 -3 -4 -6 -5
-4 -3 -3 -4 -1 0 -1 -3 -1 1 3 4 4 4 3 4 5 6 6 4 2 -1 -2 -3 -2 -1 -1 1 1 3 3 1 0 4 4 5 9 7 5 0 1 3 3 -2 -4 -5 -5
-3 -2 -3 0 -1 -0 -3 -2 -1 2 2 4 4 5 4 6 4 5 4 3 -1 -1 2 -0 -1 1 4 2 2 2 1 1 2 2 2 8 7 8 8 5 6 -5 -7 -7 -6 -7 -9
-2 -1 -1 -0 -1 -2 -3 -2 0 1 2 4 4 6 6 8 4 3 3 2 -2 -3 1 1 5 5 3 3 6 6 8 6 3 -0 -0 2 7 8 10 5 -0 -3 -6 -6 -5 -4 -6
-3 -3 -3 -2 -2 -3 -3 -2 -2 1 3 4 5 6 8 6 6 1 1 0 3 7 6 5 4 3 3 8 10 7 8 3 5 4 -2 -0 5 8 6 9 9 1 -4 -4 -5 1 -4
-3 -6 -6 -4 -4 -3 -2 -1 -2 1 3 4 5 6 9 6 3 1 1 2 -1 5 6 5 5 5 5 11 10 10 8 1 7 7 7 7 8 8 8 9 7 -3 -4 -3 1 5 -2
-3 -7 -7 -5 -4 -3 -2 -2 -1 2 3 4 4 7 8 6 1 1 -2 -3 2 4 8 5 6 5 9 10 11 10 10 8 6 1 6 6 9 9 9 9 8 -5 -3 2 3 -1 -2
-8 -6 -5 -3 -2 -1 -1 -0 -0 2 3 4 6 6 9 10 7 5 3 0 -0 2 5 5 4 5 6 8 9 11 8 7 7 8 -2 6 5 8 5 7 -1 -5 -4 -4 -3 -2 -2

GFSGBSN_850_dewp_027.txt.gz
Dewpoint
-32 -24 -2 6 5 8 9 9 9 8 6 1 -2 -8 -9 -9 -8 -6 -5 -3 -3 -5 -5 -5 -8 -12 -12 -0 -1 -1 -6 -10 -14 -12 -6 -4 -3 -6 -8 -9 -9 -9 -9 -8 1 4 5
-33 -33 -33 -16 5 5 7 9 9 9 8 4 -0 -7 -8 -8 -7 -5 -3 -2 -3 -5 -6 -7 -9 -11 -7 5 -0 -1 -6 -8 -12 -8 -7 -5 -5 -9 -9 -8 -5 -10 -10 -7 -1 5 5
-32 -33 -33 -33 -27 3 7 7 7 8 9 7 1 -3 -7 -8 -7 -4 -2 -1 -3 -6 -7 -8 -9 -8 -5 -12 -2 -1 -1 -6 -5 -5 -5 -5 -5 -4 -4 -3 -4 -6 -7 -9 -4 -1 3
-31 -32 -33 -33 -34 -30 3 7 6 6 8 8 3 -1 -6 -7 -7 -3 -1 -1 -5 -7 -8 -9 -7 -4 -6 -6 -4 -2 -1 -3 -4 -5 -5 -6 -3 -4 -4 -4 -4 -6 -6 -4 -7 -2 -1
-29 -30 -31 -33 -34 -34 -27 6 6 7 6 8 6 1 -5 -7 -6 -2 -1 -2 -6 -8 -8 -8 -2 7 3 -0 -3 -6 -2 -1 -2 -3 -3 -4 -3 -3 -3 -1 -1 -5 -3 -3 -4 -4 -3
-25 -28 -30 -30 -33 -33 -34 -13 1 6 8 9 8 2 -3 -7 -5 -1 -1 -4 -8 -9 -6 -6 -4 2 -4 -2 -7 -7 -5 -3 -3 -2 -2 -3 -3 -2 -2 -1 -1 -3 -3 -4 -4 -3 -2
-15 -25 -26 -29 -31 -31 -33 -32 -5 6 6 8 9 4 -0 -7 -4 -0 -0 -4 5 6 1 -7 -2 -5 -3 -3 -5 -5 -6 -5 -4 -1 1 -1 -1 1 -1 -2 -2 -2 -3 -4 -7 -8 -2
-7 -15 -23 -25 -28 -31 -32 -33 -27 3 5 7 9 5 1 -6 -3 0 0 -4 4 4 5 4 4 -2 -2 -2 -4 -6 -6 -4 -2 1 0 1 -0 -2 -2 -3 -1 -1 -2 -3 -7 -8 -6
1 1 -3 -14 -20 -29 -30 -32 -32 -7 5 6 8 7 2 -6 -2 0 -0 -5 1 3 6 3 0 -1 -6 -3 -4 -5 -7 -6 -2 0 1 2 1 -1 -2 -0 1 -1 1 -2 -4 -10 -11
1 1 1 -6 -5 -17 -24 -25 -32 -24 4 6 8 7 3 -5 -0 5 3 -2 -8 2 8 3 1 -1 -5 -4 -4 -8 -7 -4 -2 2 4 3 1 -1 -0 1 -3 -2 -2 -1 -3 -1 -4
-0 1 0 -2 -4 2 -4 -15 -23 -29 1 7 7 8 3 -4 3 5 8 6 6 7 10 -0 -2 -4 -5 -4 -5 -8 -6 -3 -2 2 2 3 2 1 1 1 -3 -0 -3 -2 -0 -0 1
-2 -1 -0 1 0 1 2 2 -11 -15 0 6 7 8 5 -3 1 3 7 8 7 10 10 -0 -3 -4 -4 -5 -5 -7 -8 -5 -4 1 1 1 -2 -0 -0 -1 -4 -2 -2 -0 1 2 5
-1 -2 -1 -0 0 1 1 2 1 -9 2 6 7 8 5 -3 1 6 3 9 9 9 -0 -1 -3 -4 -4 -4 -5 -7 -5 -4 -1 0 1 -3 -3 -1 -1 -1 -1 0 1 4 5 7 7
-1 -0 -3 -2 -1 -0 0 1 2 -3 1 7 7 8 5 -2 4 8 6 9 10 3 2 -4 -4 -4 -4 -5 -5 -6 -4 -4 -5 -4 -0 2 3 2 -0 -2 0 -2 1 7 8 9 7
-3 -1 -1 -4 -3 -1 0 0 1 0 0 5 7 7 6 -2 1 8 9 10 7 4 -3 -1 -6 -4 -4 -5 -7 -6 -3 -3 -5 -6 0 4 4 3 2 -0 -2 -2 -1 2 7 7 8
-4 -2 -1 -2 -5 -3 -1 -1 1 0 1 4 7 6 6 -1 1 7 9 8 7 1 -2 -3 -1 -4 -3 -4 -5 -5 -4 -6 -5 -1 3 6 5 4 4 1 -2 -3 -2 2 4 4 5
-3 -2 -2 -3 -4 -4 0 -1 -0 -0 1 3 6 6 6 2 2 7 7 7 6 2 -0 0 -2 -3 -4 -3 -5 -4 -4 -6 -5 2 3 4 6 6 4 4 0 -0 -1 -2 -0 4 5
-4 -4 -4 -5 -6 -3 1 -0 -1 -0 1 3 6 6 3 -1 6 5 6 5 4 2 2 0 -2 -3 -3 -2 -2 -4 -3 0 -4 -2 0 4 4 6 4 -1 -3 -2 0 3 4 1 5
-4 -5 -6 -5 -6 -2 0 -2 1 -1 0 4 5 5 5 -1 3 5 2 5 4 4 3 1 -0 -1 -2 -1 3 -3 3 2 0 1 1 2 1 3 1 -0 0 -0 -1 -2 3 4 4
-5 -6 -6 -6 -5 -1 -0 1 2 -1 -0 4 5 6 7 6 -1 2 2 3 6 3 3 1 0 0 0 -2 -2 1 4 2 2 2 -0 1 1 1 3 1 1 2 2 1 -0 4 4
-5 -6 -6 -5 -3 -1 -1 1 1 1 -0 4 5 4 6 7 7 2 2 3 5 5 2 -0 1 0 0 -1 -1 -0 5 4 3 1 0 2 2 1 2 3 1 0 1 1 -1 1 3
-5 -6 -7 -2 -2 -2 -2 -1 1 1 0 4 5 2 6 6 5 5 2 5 5 3 2 1 2 -0 -1 0 2 1 4 4 4 3 2 1 5 3 3 2 0 -0 0 -1 -1 -1 -3
-5 -7 -5 -4 -4 -4 -4 -1 1 0 1 3 4 2 4 6 6 5 3 4 4 2 1 -2 1 1 1 3 2 3 1 2 3 4 4 4 4 3 4 1 -1 -1 -3 -1 -1 -2 -3
-5 -5 -5 -5 -6 -6 -3 -1 1 0 2 2 4 4 5 6 6 4 2 2 4 3 4 -0 -2 2 3 2 1 1 1 3 3 3 4 4 4 3 4 2 -3 -2 -6 -7 -4 -4 -4
-4 -5 -5 -6 -5 -5 -3 0 1 1 1 1 4 5 7 5 4 2 2 3 4 3 3 3 5 2 2 2 6 5 4 -0 2 1 5 5 3 5 3 4 1 -2 -2 -2 -4 -2 -3
-5 -4 -5 -4 -3 -4 -3 0 1 -0 1 1 3 5 7 8 5 1 1 3 5 5 7 7 5 4 3 8 4 5 6 4 5 2 3 2 3 2 4 4 2 2 -3 -4 -4 2 -1
-3 -3 -2 -1 -2 -3 0 0 -1 -2 -1 1 2 3 5 8 4 3 2 4 4 6 7 7 6 5 6 4 7 4 4 3 6 5 4 4 3 3 3 3 4 2 -3 -4 -2 1 -1
-3 -1 -1 -1 -0 -0 -0 -1 -2 -2 -1 1 2 4 5 7 5 4 1 2 4 5 7 6 7 6 6 6 5 5 5 3 4 5 5 4 5 4 5 6 5 -2 -3 -2 3 -1 -1
-2 -1 -2 -1 -1 -1 -2 -3 -4 -2 -1 1 2 3 5 5 7 8 2 1 1 3 5 5 6 6 6 7 6 5 6 4 4 4 2 5 5 5 4 4 2 -4 -3 -3 -3 -1 1

GFSGBSN_850_dewp_030.txt.gz
Dewpoint
-33 -33 -33 -29 -10 3 6 4 9 9 9 8 7 -1 -6 -9 -9 -9 -8 -5 -3 -4 -6 -7 -8 -10 -13 -6 -4 -2 -7 -10 -16 -12 -6 -7 -3 -3 -7 -9 -9 -8 -8 -5 2 3 4
-32 -33 -34 -34 -33 -23 0 6 2 8 8 9 8 4 -3 -9 -9 -9 -7 -4 -3 -4 -6 -7 -9 -11 -10 0 -0 -1 -4 -9 -12 -7 -6 -4 -4 -4 -7 -6 -6 -4 -8 2 4 4 4
-31 -32 -32 -33 -33 -34 -30 -1 6 3 4 7 8 8 0 -6 -9 -8 -6 -3 -2 -4 -7 -8 -10 -10 -10 -14 -2 -3 -2 -6 -8 -7 -6 -5 -5 -3 -4 -4 -4 -4 -7 -1 5 5 5
-28 -30 -32 -31 -33 -32 -34 -31 -1 6 4 6 7 8 4 -3 -7 -8 -6 -2 -3 -5 -8 -8 -9 -6 -10 -8 -3 -3 -1 -2 -3 -4 -5 -5 -4 -3 -5 -4 -3 -4 -5 -4 2 4 3
-25 -27 -29 -31 -31 -32 -33 -33 -26 1 4 5 6 8 7 -1 -6 -8 -5 -2 -3 -6 -8 -8 -7 3 -4 -3 -4 -4 -3 -2 -1 -2 -3 -3 -3 -3 -3 -2 -1 -4 -4 -4 -2 -1 0
-15 -23 -26 -28 -29 -31 -31 -32 -32 -17 3 4 7 6 8 1 -5 -8 -5 -2 -4 -4 -5 -6 -5 -1 -8 -2 -3 -7 -4 -2 -2 -2 -2 -2 -3 -2 -2 -1 -1 -1 -2 -3 -4 -5 -2
1 -3 -16 -24 -27 -29 -29 -31 -32 -31 -8 0 5 6 8 4 -3 -8 -4 -1 2 6 4 -5 -6 -9 -6 -3 -4 -4 -6 -5 -3 -2 -0 0 -1 0 -1 -1 -2 -3 -1 -1 -3 -7 -2
2 2 1 -7 -19 -25 -27 -28 -30 -31 -19 -2 5 6 9 6 -2 -7 -2 -1 4 2 4 2 2 4 -2 -2 -3 -5 -5 -5 -2 0 1 -0 1 -1 -2 -2 -1 -0 0 -0 -3 -5 -2
1 1 2 1 -6 -14 -23 -22 -27 -31 -28 -2 4 6 6 7 -2 -6 -0 1 1 -0 4 2 -1 -2 -4 -4 -4 -4 -6 -4 -1 -0 1 1 0 -1 -2 -1 -0 -0 1 0 -1 -6 -9
0 1 1 1 2 -0 -5 -9 -17 -27 -30 -5 3 6 5 7 -3 -3 7 6 -5 -4 7 5 3 -2 -3 -7 -3 -5 -6 -5 -3 2 2 1 -0 -1 -0 -0 -0 0 -2 -1 -1 -1 -4
2 1 0 1 1 2 -1 2 -5 -15 -27 -13 4 7 7 7 -2 4 7 7 4 6 3 0 3 -3 -8 -5 -5 -6 -6 -4 -2 1 0 -0 1 -1 0 -0 -1 1 -3 -2 -1 0 0
0 1 0 -0 0 1 1 -1 2 -3 -16 -13 4 7 7 7 -2 1 6 8 7 8 7 3 -1 -2 -3 -4 -4 -6 -4 -5 -4 1 1 -1 -1 -1 -0 -1 -1 -2 -1 1 3 3 4
-2 1 1 0 -1 -0 0 1 1 2 -1 -5 3 7 7 7 1 -5 5 7 7 9 1 1 -1 -2 -2 -2 -3 -5 -6 -3 -1 1 2 0 -1 -2 -1 -1 -1 -1 -0 3 3 6 5
-2 -0 1 1 0 -1 -0 1 1 2 2 -3 4 7 7 7 1 2 4 9 9 4 5 -2 -2 -2 -1 -3 -3 -5 -4 -4 -4 -2 0 1 3 1 1 -1 0 -0 -0 4 5 6 4
-4 -1 1 0 1 -2 -2 -0 0 1 2 -0 4 6 6 6 1 6 8 9 6 7 -1 -2 -3 -1 -2 -4 -5 -5 -4 -4 -5 -5 -2 3 3 2 2 0 0 -1 -0 0 6 6 7
-7 -2 1 1 0 -0 -3 -3 -1 -0 1 1 3 5 6 7 4 4 8 6 6 4 1 -0 -2 -3 -2 -4 -4 -5 -3 -4 -4 -5 -0 3 2 2 2 -0 -1 -1 -3 1 4 5 6
-2 -3 0 0 -0 -1 -1 -3 -2 -1 1 1 3 5 5 6 5 4 7 5 4 3 4 2 1 -1 -3 -3 -4 -3 -4 -6 -3 3 1 4 1 2 2 3 1 -0 -1 -1 1 3 4
-1 -6 -0 -0 -1 -2 -1 -2 -5 -0 1 1 4 5 4 5 4 4 6 4 2 3 3 4 2 2 -2 -2 -2 -3 -3 -5 -2 2 1 3 4 5 2 -0 0 -1 0 2 3 -0 4
-0 -3 -3 -1 -1 -3 -2 -3 -6 -1 -0 1 3 4 4 5 4 3 3 4 3 2 3 4 2 0 -2 0 -0 1 -0 2 1 1 1 2 2 3 2 -1 -1 0 -1 -0 3 2 3
-0 -3 -3 -2 -2 -3 -3 -4 -6 -0 -1 2 4 5 5 6 3 -0 3 5 5 2 3 4 4 2 0 0 1 2 3 2 2 1 1 -0 1 0 2 -1 -1 1 2 1 2 4 3
-0 -3 -2 -2 -2 -3 -5 -6 -5 0 -1 1 4 3 3 5 5 0 1 2 4 2 3 2 3 4 3 1 2 2 4 3 3 -0 0 -0 1 0 -0 2 2 -0 1 1 1 1 2
-0 -3 -3 -3 -3 -5 -7 -7 -4 0 1 2 4 4 3 5 3 3 1 1 1 -0 2 2 4 3 2 -0 -0 3 4 4 2 2 0 2 3 3 2 1 -0 -1 -1 -1 -1 -1 1
-1 -3 -3 -3 -4 -7 -7 -5 -3 0 1 2 2 3 3 4 4 4 2 1 -1 -1 2 0 1 2 2 0 0 -0 0 1 3 3 3 3 3 2 3 0 -2 1 -2 -2 -1 -1 -2
-2 -3 -4 -4 -5 -7 -6 -5 -1 0 1 1 1 4 4 5 5 5 2 0 0 1 1 1 -0 2 1 1 2 2 2 3 4 6 4 3 3 2 3 -0 0 -0 -3 -4 -2 -3 -3
-4 -4 -5 -4 -8 -7 -4 -2 -1 -0 1 2 3 3 5 3 5 5 3 1 -0 1 4 1 3 1 1 1 4 4 3 2 1 4 5 4 4 5 2 2 1 -2 -3 -4 -3 -0 -2
-5 -5 -5 -8 -8 -4 -3 -3 -2 -1 1 1 2 3 4 6 5 5 4 1 1 4 3 5 4 3 3 5 3 4 4 3 4 2 1 3 1 2 4 2 0 -1 -2 -4 -3 3 -1
-4 -5 -8 -6 -5 -4 -5 -4 -4 -0 0 0 2 2 2 4 5 4 4 2 -0 5 5 7 5 5 5 4 4 4 5 3 5 4 2 2 2 1 1 1 1 -0 -2 -4 -4 -2 -1
-4 -4 -4 -5 -6 -6 -5 -4 -3 0 1 1 2 2 2 4 4 6 2 -0 2 4 6 6 6 6 4 5 5 4 2 4 4 4 4 3 3 3 4 3 3 -0 -3 -2 -2 -0 -2
-5 -5 -5 -4 -4 -4 -4 -2 -1 1 1 1 1 1 3 2 5 5 5 2 -0 3 4 6 4 5 5 6 6 4 4 3 3 5 3 2 2 3 3 3 0 -3 -2 -1 -2 -1 1

GFSGBSN_850_dewp_033.txt.gz
Dewpoint
-31 -31 -31 -32 -30 -19 -3 4 6 4 6 8 8 8 6 -3 -8 -9 -9 -8 -5 -4 -5 -7 -8 -10 -13 -12 -4 -2 -6 -11 -15 -13 -9 -6 -4 -3 -5 -8 -9 -8 -8 -8 -8 4 4
-30 -31 -30 -32 -32 -32 -30 -12 2 6 5 5 8 8 8 4 -5 -8 -8 -7 -5 -3 -5 -7 -9 -10 -10 -8 -0 -1 -5 -10 -14 -10 -6 -5 -5 -4 -3 -5 -5 -4 -4 4 4 5 5
-27 -29 -29 -29 -31 -32 -32 -32 -25 -0 5 5 3 7 7 8 -1 -7 -8 -8 -4 -2 -5 -8 -9 -10 -10 -21 -1 -2 -2 -7 -9 -8 -6 -5 -5 -3 -3 -4 -4 -3 -2 4 5 5 5
-15 -25 -27 -28 -28 -30 -30 -31 -31 -24 -0 6 5 1 4 8 4 -5 -8 -8 -3 -2 -6 -8 -9 -9 -13 -15 -3 -4 -2 -2 -4 -5 -5 -4 -3 -3 -3 -4 -3 -5 -5 -0 4 4 3
-4 -9 -23 -25 -27 -27 -29 -30 -30 -31 -20 1 4 3 4 7 7 -3 -8 -8 -4 -2 -6 -8 -8 -7 -11 -7 -7 -5 -3 -2 -1 -2 -3 -4 -2 -3 -3 -2 -3 -4 -4 -3 3 2 2
1 -4 -7 -20 -22 -26 -27 -27 -29 -30 -29 -9 1 4 3 5 7 0 -8 -7 -3 -5 -0 -0 -5 -7 -13 -2 -2 -2 -5 -3 -3 -2 -2 -2 -3 -2 -2 -2 -0 -1 -2 -3 -3 -6 1
2 2 1 -2 -16 -16 -26 -28 -26 -27 -29 -22 2 4 3 6 7 2 -8 -4 -1 5 4 -0 -9 -14 -12 -4 -4 -7 -6 -4 -3 -2 -0 -0 -1 0 -1 -2 -2 -1 -0 0 -2 -4 -2
2 1 2 2 2 -4 -7 -18 -26 -27 -29 -29 -4 4 6 4 8 3 -7 -1 3 2 2 -0 -1 2 1 2 2 -4 -5 -4 -2 -1 1 -1 1 -2 -1 -2 -1 -0 0 0 -1 -4 -4
2 2 1 2 2 2 1 -2 -1 -16 -25 -28 -8 3 7 4 8 5 -6 4 5 1 0 -1 -1 -2 -3 -2 -0 -4 -5 -5 -2 -0 -0 0 -1 -1 -2 -2 -1 -1 0 1 0 -3 -5
-2 1 2 1 1 1 2 2 2 2 -11 -22 -15 4 8 7 5 5 2 6 -1 -3 5 4 5 -1 -2 -3 -3 -4 -5 -5 -2 0 1 0 -0 -1 -0 -0 -1 1 -1 -0 -1 -2 -6
-5 -1 0 2 1 1 1 2 2 2 2 -15 -16 4 7 7 3 -2 7 6 1 6 -1 -5 3 -2 -7 -5 -5 -4 -5 -5 -2 1 -0 -1 1 0 -0 -1 -1 0 -1 -1 -1 0 -1
-3 -5 -2 0 2 1 0 1 2 2 3 -1 -8 4 7 7 7 1 7 6 6 4 1 1 1 -0 -3 -4 -4 -6 -5 -5 -4 0 0 -1 -1 -2 -2 -2 -1 -2 -1 0 2 2 3
-1 -3 -4 -2 1 2 0 0 1 1 2 2 -7 5 6 7 7 5 1 7 8 6 -2 2 0 -1 -3 -2 -3 -4 -5 -2 0 1 1 -0 -1 -2 -1 -2 -2 -1 -1 1 2 5 4
-0 -2 -4 -4 -1 1 1 -0 0 1 1 2 0 4 5 6 7 4 1 8 8 5 5 2 -2 -1 -2 -3 -2 -3 -4 -4 -4 -2 1 2 1 0 0 -1 0 0 -1 3 4 5 2
0 -1 -2 -5 -4 -1 2 -0 -1 -0 0 1 1 2 5 6 7 3 7 9 5 4 3 -3 -2 -0 -1 -2 -3 -4 -4 -4 -5 -3 -1 2 1 1 1 -0 -1 -0 0 -1 5 5 6
1 0 -1 -2 -5 -3 2 1 -1 -0 -0 1 1 2 4 5 7 5 7 6 5 4 4 4 -0 -1 1 -2 -3 -3 -3 -4 -5 -4 -4 -0 0 1 1 1 -1 -1 -1 0 3 4 6
1 1 -2 -1 -3 -5 0 1 -0 -2 -0 1 1 3 3 4 7 4 6 5 4 2 3 5 3 -1 -1 -2 -3 -3 -3 -6 -4 0 -2 3 -1 -0 3 2 0 -0 -0 -1 1 2 3
1 1 0 -2 -3 -4 -1 1 0 -2 -1 1 2 3 3 4 5 3 3 3 2 2 2 4 4 3 -0 -2 -2 -3 -3 -6 -6 1 0 2 1 4 2 -0 -0 -1 -0 0 3 1 4
1 2 0 -0 -2 -5 1 0 0 -3 -2 1 1 3 3 3 5 4 2 3 2 1 3 3 4 3 -0 -1 -2 -2 -2 0 -0 -0 2 2 2 4 2 -0 -1 0 0 2 2 2 3
1 2 1 0 -3 -4 1 1 -0 -3 -2 1 1 4 5 5 3 3 3 4 5 2 2 3 4 4 2 0 -0 2 3 2 2 1 -1 -1 1 1 3 1 -1 1 1 1 2 4 3
1 2 1 0 -1 0 -0 -0 -1 -4 -2 1 1 2 3 5 4 3 1 2 4 4 3 1 3 4 4 3 1 2 4 3 2 1 1 0 1 -1 -2 -3 1 0 1 2 1 1 2
1 1 1 0 -0 -3 -1 -1 -1 -3 -4 -1 1 3 3 4 2 3 2 2 3 3 3 3 1 2 1 4 1 1 3 3 2 1 1 1 2 1 2 0 -0 -0 -1 -1 -0 -1 1
1 1 1 0 -0 -1 -0 -1 -2 -4 -6 -1 1 2 3 2 3 3 2 2 1 2 2 0 2 3 4 3 1 -1 1 -0 0 2 2 2 2 3 3 0 -2 1 -1 -2 -2 -1 -1
2 1 0 -0 -1 -1 -1 -1 -3 -4 -7 -1 0 2 4 4 3 3 1 1 1 1 1 -1 -2 1 0 1 2 2 2 3 5 5 2 2 1 1 3 -0 2 0 -3 -3 -2 -2 -3
1 0 -0 -0 -2 -2 -2 -4 -4 -5 -4 -1 1 2 3 4 2 3 2 1 -0 -1 0 -2 0 -5 -1 2 3 4 3 4 2 3 5 2 2 3 2 2 0 -2 -3 -2 -2 -2 -2
0 -0 -0 -1 -2 -2 -3 -5 -7 -6 -5 -1 1 1 2 4 4 2 2 1 2 1 1 2 -3 1 0 3 2 5 6 5 4 4 1 1 1 3 2 1 2 0 -3 -4 -3 2 -2
-0 -0 -1 -2 -3 -3 -5 -7 -7 -5 -3 -1 0 2 2 2 4 3 4 3 1 0 1 4 6 6 5 2 3 3 3 3 4 4 2 3 2 3 1 1 1 -3 -2 -5 -1 -0 -1
-1 -1 -2 -2 -4 -4 -6 -7 -7 -4 -2 -1 -0 2 2 2 3 4 4 3 1 -0 2 3 6 6 3 5 4 3 3 4 3 2 2 3 4 3 2 1 2 -2 -1 -3 -3 -1 -1
-2 -3 -5 -5 -5 -6 -3 -3 -3 -4 -1 -0 1 2 2 2 3 3 5 4 4 1 1 5 3 5 5 5 4 4 3 2 3 5 2 2 2 3 2 2 -1 -1 -3 -4 -2 -1 -1